Time,TemperatureF,DewpointF,PressureIn,WindDirection,WindDirectionDegrees,WindSpeedMPH,WindSpeedGustMPH,Humidity,HourlyPrecipIn,Conditions,Clouds,dailyrainin,SoftwareType,DateUTC
2013-03-06 00:01:00,-999.0,-99.9,-100.00,South,190,11.0,-999.0,-999,-99.99,,,-99.99,,2013-03-06 08:01:00,
2013-03-06 00:11:00,-999.0,-99.9,-100.00,SSW,210,10.0,-999.0,-999,-99.99,,,-99.99,,2013-03-06 08:11:00,
2013-03-06 00:22:00,-999.0,-99.9,-100.00,SSW,210,11.0,-999.0,-999,-99.99,,,-99.99,,2013-03-06 08:22:00,
2013-03-06 00:32:00,-999.0,-99.9,-100.00,SW,230,11.0,-999.0,-999,-99.99,,,-99.99,,2013-03-06 08:32:00,
2013-03-06 00:42:00,33.0,33.0,-100.00,SSW,210,288.0,-999.0,99,-99.99,,,-99.99,,2013-03-06 08:42:00,
2013-03-06 00:52:00,32.0,15.0,-100.00,SW,230,8.0,-999.0,49,-99.99,,,-99.99,,2013-03-06 08:52:00,
2013-03-06 01:02:00,-999.0,-99.9,-100.00,SW,230,8.0,-999.0,-999,-99.99,,,-99.99,,2013-03-06 09:02:00,
2013-03-06 01:12:00,-999.0,-99.9,-100.00,WSW,240,6.0,-999.0,99,-99.99,,,-99.99,,2013-03-06 09:12:00,
2013-03-06 01:22:00,-999.0,-99.9,-100.00,SW,230,7.0,-999.0,-999,-99.99,,,-99.99,,2013-03-06 09:22:00,
2013-03-06 01:31:00,32.0,32.0,-100.00,South,190,5.0,-999.0,99,-99.99,,,-99.99,,2013-03-06 09:31:00,
2013-03-06 01:42:00,23.0,-99.9,-100.00,WSW,240,6.0,-999.0,-999,-99.99,,,-99.99,,2013-03-06 09:42:00,
2013-03-06 01:52:00,-999.0,-99.9,-100.00,South,170,8.0,-999.0,-999,-99.99,,,-99.99,,2013-03-06 09:52:00,
2013-03-06 02:02:00,-999.0,-99.9,-100.00,SW,220,7.0,-999.0,-999,-99.99,,,-99.99,,2013-03-06 10:02:00,
2013-03-06 02:11:00,31.0,31.0,-100.00,SSW,200,8.0,-999.0,99,-99.99,,,-99.99,,2013-03-06 10:11:00,
2013-03-06 02:22:00,-999.0,-99.9,-100.00,SSW,210,8.0,-999.0,-999,-99.99,,,-99.99,,2013-03-06 10:22:00,
2013-03-06 02:31:00,30.0,30.0,-100.00,SW,230,5.0,-999.0,99,-99.99,,,-99.99,,2013-03-06 10:31:00,
2013-03-06 02:41:00,29.0,29.0,-100.00,SW,230,5.0,-999.0,99,-99.99,,,-99.99,,2013-03-06 10:41:00,
2013-03-06 03:23:00,30.0,-99.9,-100.00,WSW,240,2.0,-999.0,-999,-99.99,,,-99.99,,2013-03-06 11:23:00,
2013-03-06 03:32:00,-999.0,-99.9,-100.00,SSW,210,4.0,-999.0,-999,-99.99,,,-99.99,,2013-03-06 11:32:00,
2013-03-06 03:43:00,-999.0,-99.9,-100.00,WNW,300,7.0,-999.0,-999,-99.99,,,-99.99,,2013-03-06 11:43:00,
2013-03-06 03:53:00,-999.0,-99.9,-100.00,SSW,200,7.0,-999.0,-999,-99.99,,,-99.99,,2013-03-06 11:53:00,
2013-03-06 04:02:00,-999.0,-99.9,-100.00,South,170,8.0,-999.0,-999,-99.99,,,-99.99,,2013-03-06 12:02:00,
2013-03-06 04:11:00,30.0,30.0,-100.00,North,-999,-999.0,-999.0,99,-99.99,,,-99.99,,2013-03-06 12:11:00,
2013-03-06 04:22:00,30.0,-99.9,-100.00,SSW,200,10.0,-999.0,-999,-99.99,,,-99.99,,2013-03-06 12:22:00,
2013-03-06 04:33:00,-999.0,-99.9,-100.00,South,190,8.0,-999.0,-999,-99.99,,,-99.99,,2013-03-06 12:33:00,
2013-03-06 04:43:00,-999.0,-99.9,-100.00,South,190,204.0,-999.0,-999,-99.99,,,-99.99,,2013-03-06 12:43:00,
2013-03-06 04:52:00,31.0,31.0,-100.00,SW,230,10.0,-999.0,99,-99.99,,,-99.99,,2013-03-06 12:52:00,
2013-03-06 05:02:00,-999.0,-99.9,-100.00,SSW,200,8.0,-999.0,-999,-99.99,,,-99.99,,2013-03-06 13:02:00,
2013-03-06 05:11:00,31.0,31.0,-100.00,SW,230,6.0,-999.0,99,-99.99,,,-99.99,,2013-03-06 13:11:00,
2013-03-06 05:22:00,-999.0,-99.9,-100.00,SSW,210,8.0,-999.0,99,-99.99,,,-99.99,,2013-03-06 13:22:00,
2013-03-06 05:32:00,-999.0,-99.9,-100.00,SSW,200,6.0,-999.0,-999,-99.99,,,-99.99,,2013-03-06 13:32:00,
2013-03-06 05:42:00,-999.0,-99.9,-100.00,SSW,210,259.0,-999.0,-999,-99.99,,,-99.99,,2013-03-06 13:42:00,
2013-03-06 05:51:00,29.0,29.0,-100.00,South,190,5.0,-999.0,99,-99.99,,,-99.99,,2013-03-06 13:51:00,
2013-03-06 06:01:00,30.0,30.0,-100.00,North,-999,-999.0,-999.0,99,-99.99,,,-99.99,,2013-03-06 14:01:00,
2013-03-06 06:21:00,29.0,29.0,-100.00,North,-999,-999.0,-999.0,99,-99.99,,,-99.99,,2013-03-06 14:21:00,
2013-03-06 06:42:00,-999.0,-99.9,-100.00,SW,230,6.0,-999.0,-999,-99.99,,,-99.99,,2013-03-06 14:42:00,
2013-03-06 06:53:00,-999.0,-99.9,-100.00,SW,220,8.0,-999.0,-999,-99.99,,,-99.99,,2013-03-06 14:53:00,
2013-03-06 07:01:00,31.0,31.0,-100.00,North,-999,-999.0,-999.0,99,-99.99,,,-99.99,,2013-03-06 15:01:00,
2013-03-06 07:12:00,-999.0,-99.9,-100.00,SSW,200,5.0,-999.0,-999,-99.99,,,-99.99,,2013-03-06 15:12:00,
2013-03-06 07:22:00,-999.0,-99.9,-100.00,SSW,210,8.0,-999.0,-999,-99.99,,,-99.99,,2013-03-06 15:22:00,
2013-03-06 07:32:00,30.0,30.0,-100.00,SW,220,7.0,-999.0,99,-99.99,,,-99.99,,2013-03-06 15:32:00,
2013-03-06 07:42:00,-999.0,-99.9,-100.00,SSW,200,7.0,-999.0,-999,-99.99,,,-99.99,,2013-03-06 15:42:00,
2013-03-06 07:52:00,29.0,29.0,-100.00,North,-999,-999.0,-999.0,99,-99.99,,,-99.99,,2013-03-06 15:52:00,
2013-03-06 08:01:00,30.0,30.0,-100.00,WSW,240,6.0,-999.0,99,-99.99,,,-99.99,,2013-03-06 16:01:00,
2013-03-06 08:12:00,-999.0,-99.9,-100.00,WSW,240,8.0,-999.0,-999,-99.99,,,-99.99,,2013-03-06 16:12:00,
2013-03-06 08:22:00,-999.0,-99.9,-100.00,WSW,240,8.0,-999.0,-999,-99.99,,,-99.99,,2013-03-06 16:22:00,
2013-03-06 08:32:00,29.0,29.0,-100.00,SW,230,5.0,-999.0,99,-99.99,,,-99.99,,2013-03-06 16:32:00,
2013-03-06 08:42:00,-999.0,-99.9,-100.00,SW,230,5.0,-999.0,-999,-99.99,,,-99.99,,2013-03-06 16:42:00,
2013-03-06 08:52:00,-999.0,-99.9,-100.00,WSW,250,266.0,-999.0,-999,-99.99,,,-99.99,,2013-03-06 16:52:00,
2013-03-06 09:02:00,-999.0,-99.9,-100.00,West,260,7.0,-999.0,-999,-99.99,,,-99.99,,2013-03-06 17:02:00,
2013-03-06 09:11:00,27.0,27.0,-100.00,North,-999,-999.0,-999.0,99,-99.99,,,-99.99,,2013-03-06 17:11:00,
2013-03-06 09:22:00,-999.0,-99.9,-100.00,SSW,210,5.0,-999.0,-999,-99.99,,,-99.99,,2013-03-06 17:22:00,
2013-03-06 09:32:00,-999.0,-99.9,-100.00,SSW,210,5.0,-999.0,-999,-99.99,,,-99.99,,2013-03-06 17:32:00,
2013-03-06 09:41:00,26.0,26.0,-100.00,North,-999,-999.0,-999.0,99,-99.99,,,-99.99,,2013-03-06 17:41:00,
2013-03-06 09:53:00,-999.0,-99.9,-100.00,SW,230,6.0,-999.0,-999,-99.99,,,-99.99,,2013-03-06 17:53:00,
2013-03-06 10:02:00,-999.0,-99.9,-100.00,SW,230,6.0,-999.0,-999,-99.99,,,-99.99,,2013-03-06 18:02:00,
2013-03-06 10:29:00,-999.0,-99.9,-100.00,SSW,200,11.0,-999.0,-999,-99.99,,,-99.99,,2013-03-06 18:29:00,
2013-03-06 10:42:00,26.0,26.0,-100.00,SSW,210,5.0,-999.0,99,-99.99,,,-99.99,,2013-03-06 18:42:00,
2013-03-06 10:53:00,-999.0,-99.9,-100.00,WSW,240,9.0,-999.0,-999,-99.99,,,-99.99,,2013-03-06 18:53:00,
2013-03-06 11:02:00,27.0,27.0,-100.00,WSW,240,8.0,-999.0,99,-99.99,,,-99.99,,2013-03-06 19:02:00,
2013-03-06 11:11:00,26.0,26.0,-100.00,North,-999,-999.0,-999.0,99,-99.99,,,-99.99,,2013-03-06 19:11:00,
2013-03-06 11:22:00,-999.0,-99.9,-100.00,SW,230,13.0,-999.0,-999,-99.99,,,-99.99,,2013-03-06 19:22:00,
2013-03-06 11:33:00,-999.0,-99.9,-100.00,WSW,240,8.0,-999.0,-999,-99.99,,,-99.99,,2013-03-06 19:33:00,
2013-03-06 11:43:00,-999.0,-99.9,-100.00,SW,230,8.0,-999.0,-999,-99.99,,,-99.99,,2013-03-06 19:43:00,
2013-03-06 11:52:00,26.0,26.0,-100.00,West,260,8.0,-999.0,99,-99.99,,,-99.99,,2013-03-06 19:52:00,
2013-03-06 12:01:00,26.0,26.0,-100.00,West,260,8.0,-999.0,99,-99.99,,,-99.99,,2013-03-06 20:01:00,
2013-03-06 12:11:00,26.0,26.0,-100.00,West,260,8.0,-999.0,99,-99.99,,,-99.99,,2013-03-06 20:11:00,
2013-03-06 12:22:00,26.0,26.0,-100.00,West,260,8.0,-999.0,99,-99.99,,,-99.99,,2013-03-06 20:22:00,
2013-03-06 15:50:00,32.0,24.0,-100.00,SSW,210,7.0,-999.0,73,-99.99,,,-99.99,,2013-03-06 23:50:00,
2013-03-06 16:02:00,-999.0,-99.9,-100.00,SSW,210,6.0,-999.0,-999,-99.99,,,-99.99,,2013-03-07 00:02:00,
2013-03-06 16:11:00,-999.0,-99.9,-100.00,SSW,200,5.0,-999.0,-999,-99.99,,,-99.99,,2013-03-07 00:11:00,
2013-03-06 16:21:00,32.0,24.0,-100.00,SSW,210,7.0,-999.0,73,-99.99,,,-99.99,,2013-03-07 00:21:00,
2013-03-06 16:32:00,32.0,24.0,-100.00,SSW,210,7.0,-999.0,73,-99.99,,,-99.99,,2013-03-07 00:32:00,
2013-03-06 16:41:00,32.0,24.0,-100.00,SSW,210,7.0,-999.0,73,-99.99,,,-99.99,,2013-03-07 00:41:00,
2013-03-06 19:42:00,27.0,23.0,-100.00,North,-999,-999.0,-999.0,86,-99.99,,,-99.99,,2013-03-07 03:42:00,
2013-03-06 19:52:00,27.0,23.0,-100.00,North,-999,-999.0,-999.0,86,-99.99,,,-99.99,,2013-03-07 03:52:00,
2013-03-06 20:01:00,28.0,24.0,-100.00,North,-999,-999.0,-999.0,86,-99.99,,,-99.99,,2013-03-07 04:01:00,
2013-03-06 20:11:00,27.0,24.0,-100.00,North,-999,-999.0,-999.0,89,-99.99,,,-99.99,,2013-03-07 04:11:00,
2013-03-06 20:21:00,27.0,24.0,-100.00,North,-999,-999.0,-999.0,87,-99.99,,,-99.99,,2013-03-07 04:21:00,
2013-03-06 20:32:00,-999.0,-99.9,-100.00,SSW,200,0.0,-999.0,-999,-99.99,,,-99.99,,2013-03-07 04:32:00,
2013-03-06 20:41:00,28.0,22.0,-100.00,North,-999,-999.0,-999.0,78,-99.99,,,-99.99,,2013-03-07 04:41:00,
2013-03-06 20:51:00,27.0,22.0,-100.00,North,-999,-999.0,-999.0,80,-99.99,,,-99.99,,2013-03-07 04:51:00,
2013-03-06 21:03:00,-999.0,-99.9,-100.00,South,190,1.0,-999.0,-999,-99.99,,,-99.99,,2013-03-07 05:03:00,
2013-03-06 21:12:00,27.0,22.0,-100.00,North,-999,-999.0,-999.0,79,-99.99,,,-99.99,,2013-03-07 05:12:00,
2013-03-06 21:22:00,27.0,21.0,-100.00,North,-999,-999.0,-999.0,78,-99.99,,,-99.99,,2013-03-07 05:22:00,
2013-03-06 21:31:00,26.0,22.0,-100.00,North,-999,-999.0,-999.0,82,-99.99,,,-99.99,,2013-03-07 05:31:00,
2013-03-06 21:41:00,26.0,22.0,-100.00,North,-999,-999.0,-999.0,82,-99.99,,,-99.99,,2013-03-07 05:41:00,
2013-03-06 21:52:00,24.0,22.0,-100.00,North,-999,-999.0,-999.0,91,-99.99,,,-99.99,,2013-03-07 05:52:00,
2013-03-06 22:01:00,24.0,22.0,-100.00,North,-999,-999.0,-999.0,91,-99.99,,,-99.99,,2013-03-07 06:01:00,
2013-03-06 22:11:00,22.0,22.0,-100.00,North,-999,-999.0,-999.0,98,-99.99,,,-99.99,,2013-03-07 06:11:00,
2013-03-06 22:21:00,22.0,21.0,-100.00,North,-999,-999.0,-999.0,96,-99.99,,,-99.99,,2013-03-07 06:21:00,
2013-03-06 22:31:00,20.0,20.0,-100.00,North,-999,-999.0,-999.0,99,-99.99,,,-99.99,,2013-03-07 06:31:00,
2013-03-06 22:41:00,20.0,20.0,-100.00,North,-999,-999.0,-999.0,99,-99.99,,,-99.99,,2013-03-07 06:41:00,
2013-03-06 22:51:00,21.0,21.0,-100.00,North,-999,-999.0,-999.0,99,-99.99,,,-99.99,,2013-03-07 06:51:00,
2013-03-06 23:31:00,20.0,20.0,-100.00,North,-999,-999.0,-999.0,99,-99.99,,,-99.99,,2013-03-07 07:31:00,
2013-03-06 23:43:00,20.0,20.0,-100.00,North,-999,-999.0,-999.0,99,-99.99,,,-99.99,,2013-03-07 07:43:00,
2013-03-06 23:52:00,21.0,21.0,-100.00,SE,140,0.0,-999.0,99,-99.99,,,-99.99,,2013-03-07 07:52:00,